sat.trackr.live / text

‹ back to catalog

ONEWEB-0291

NORAD 49081 · 2021-075G

PAYLOAD ACTIVE UNKNOWN

§ Identity

Operator
Country
UK
Launch date
2021-08-21
Launch site
TYMSC
Launch vehicle
Mass (kg)
RCS (m²)

Purposes: comms

External: N2YO · Heavens-Above · Gunter

§ Orbital elements

Epoch: 2026-09-20T00:10:53.582304Z

Period
109.29 min
Inclination
87.9201°
Eccentricity
0.0001725
Mean motion
13.17649983 rev/d
Perigee alt
1,192.4 km
Apogee alt
1,195.0 km
Semi-major
7,571.8 km
B*
-7.8584e-5
RAAN
347.0335°
Arg perigee
113.0025°
Mean anomaly
247.1288°
Rev number
24,609

§ Raw data

ONEWEB-02911 49081U 21075G   26263.00756461 -.00000018  00000+0 -78584-4 0  99912 49081  87.9201 347.0335 0001725 113.0025 247.1288 13.17649983246097

JSON: /api/v1/satellites/49081 · /tle

For live sub-satellite position, see the globe view (requires WebGL).

§ Visibility from observer

Set your observer location to see the next 7 days of passes ≥ 10°. The values pass through the URL so the page stays shareable.

No JS? Fill the form by hand. The geolocation button needs JavaScript.